Volver al catálogo

ONEWEB-0439

ActivoComunicacionesPO
NORAD 51635·PAYLOAD·🇬🇧 United Kingdom

Lanzado Feb 10, 2022 desde Guiana Space Centre

Loading…

Próximos Pases (próximas 24 horas)

TLE

ActualizadoSource: CelesTrak SupGP

Época: Sep 14, 2026, 14:54 UTC

1 51635C 22012P   26257.62134676 -.00000516  00000+0 -14792-2 0  2579
2 51635  87.8908  18.4622 0001843 104.6798   7.2556 13.10371119    19

Sigue ONEWEB-0439 en tiempo real con AllMySat

Download on the App Store